When you browse on this site, cookies collect data to enhance your experience and personalize the content and advertising you see.
Visit our Privacy Policy to learn more. By continuing to use the site, you agree to this use of cookies and data.
  • En España
  • Lista de países
  • Para 7 días
  • Temperatura del agua
  • El tiempo en el mapa
  • Informadores
  • user-avatar
    Iniciar sesión

    Tiempo cada hora Penco

    Hoy, 23 Enero, Jueves

    Tiempo Temperatura Precipitaciones Viento Presión Humedad
    00:00 +15°C° 0 mm 2 mps 753 mmHg 96%
    01:00 +14°C° 0 mm 1 mps 753 mmHg 97%
    02:00 +14°C° 0 mm 1 mps 753 mmHg 97%
    03:00 +14°C° 0 mm 1 mps 754 mmHg 96%
    04:00 +14°C° 0 mm 1 mps 754 mmHg 96%
    05:00 +16°C° 0 mm 1 mps 754 mmHg 89%
    06:00 +18°C° 0 mm 1 mps 754 mmHg 81%
    07:00 +18°C° 0 mm 0 mps 755 mmHg 73%
    08:00 +24°C° 0 mm 1 mps 755 mmHg 59%
    09:00 +28°C° 0 mm 1 mps 755 mmHg 45%
    10:00 +32°C° 0 mm 2 mps 755 mmHg 31%
    11:00 +31°C° 0 mm 2 mps 756 mmHg 33%
    12:00 +31°C° 0 mm 3 mps 756 mmHg 35%
    13:00 +30°C° 0 mm 3 mps 756 mmHg 36%
    14:00 +29°C° 0 mm 3 mps 755 mmHg 40%
    15:00 +28°C° 0 mm 3 mps 755 mmHg 44%
    16:00 +26°C° 0 mm 3 mps 755 mmHg 48%
    17:00 +24°C° 0 mm 2 mps 755 mmHg 56%
    18:00 +21°C° 0 mm 2 mps 755 mmHg 64%
    19:00 +19°C° 0 mm 1 mps 756 mmHg 73%
    20:00 +19°C° 0 mm 1 mps 756 mmHg 69%
    21:00 +19°C° 0 mm 1 mps 755 mmHg 65%
    22:00 +18°C° 0 mm 1 mps 755 mmHg 61%
    23:00 +18°C° 0 mm 1 mps 755 mmHg 62%

    Mañana, 24 Enero, Viernes

    Tiempo Temperatura Precipitaciones Viento Presión Humedad
    00:00 +16°C° 0 mm 1 mps 755 mmHg 64%
    01:00 +16°C° 0 mm 1 mps 755 mmHg 65%
    02:00 +15°C° 0 mm 1 mps 755 mmHg 70%
    03:00 +14°C° 0 mm 1 mps 755 mmHg 74%
    04:00 +13°C° 0 mm 1 mps 755 mmHg 79%
    05:00 +16°C° 0 mm 1 mps 755 mmHg 69%
    06:00 +19°C° 0 mm 1 mps 755 mmHg 59%
    07:00 +22°C° 0 mm 1 mps 755 mmHg 49%
    08:00 +26°C° 0 mm 2 mps 755 mmHg 38%
    09:00 +29°C° 0 mm 3 mps 755 mmHg 28%
    10:00 +34°C° 0 mm 4 mps 755 mmHg 17%
    11:00 +35°C° 0 mm 4 mps 755 mmHg 16%
    12:00 +35°C° 0 mm 5 mps 755 mmHg 16%
    13:00 +36°C° 0 mm 5 mps 755 mmHg 15%
    14:00 +36°C° 0 mm 6 mps 755 mmHg 15%
    15:00 +35°C° 0 mm 6 mps 755 mmHg 16%
    16:00 +34°C° 0 mm 7 mps 755 mmHg 16%
    17:00 +30°C° 0 mm 6 mps 755 mmHg 20%
    18:00 +27°C° 0 mm 6 mps 755 mmHg 25%
    19:00 +23°C° 0 mm 5 mps 755 mmHg 29%
    20:00 +21°C° 0 mm 5 mps 756 mmHg 31%
    21:00 +20°C° 0 mm 4 mps 756 mmHg 33%
    22:00 +18°C° 0 mm 4 mps 756 mmHg 35%
    23:00 +15°C° 0 mm 4 mps 756 mmHg 43%

    Pasado mañana, 25 Enero, Sábado

    Tiempo Temperatura Precipitaciones Viento Presión Humedad
    00:00 +13°C° 0 mm 3 mps 755 mmHg 52%
    01:00 +13°C° 0 mm 2 mps 755 mmHg 60%
    02:00 +12°C° 0 mm 2 mps 755 mmHg 66%
    03:00 +10°C° 0 mm 2 mps 755 mmHg 71%
    04:00 +10°C° 0 mm 2 mps 755 mmHg 76%
    05:00 +14°C° 0 mm 2 mps 755 mmHg 66%
    06:00 +17°C° 0 mm 2 mps 755 mmHg 55%
    07:00 +19°C° 0 mm 2 mps 755 mmHg 44%
    08:00 +24°C° 0 mm 2 mps 755 mmHg 39%
    09:00 +28°C° 0 mm 3 mps 755 mmHg 34%
    10:00 +33°C° 0 mm 3 mps 755 mmHg 29%
    11:00 +34°C° 0 mm 4 mps 755 mmHg 27%
    12:00 +35°C° 0 mm 5 mps 755 mmHg 26%
    13:00 +36°C° 0 mm 5 mps 755 mmHg 24%
    14:00 +36°C° 0 mm 6 mps 754 mmHg 25%
    15:00 +36°C° 0 mm 6 mps 754 mmHg 26%
    16:00 +35°C° 0 mm 6 mps 754 mmHg 27%
    17:00 +33°C° 0 mm 6 mps 754 mmHg 32%
    18:00 +29°C° 0 mm 5 mps 755 mmHg 38%
    19:00 +26°C° 0 mm 5 mps 755 mmHg 43%
    20:00 +23°C° 0 mm 5 mps 755 mmHg 50%
    21:00 +21°C° 0 mm 4 mps 755 mmHg 57%
    22:00 +19°C° 0 mm 3 mps 755 mmHg 63%
    23:00 +18°C° 0 mm 3 mps 755 mmHg 69%

    26 Enero, Domingo

    Tiempo Temperatura Precipitaciones Viento Presión Humedad
    00:00 +17°C° 0 mm 3 mps 755 mmHg 75%
    01:00 +16°C° 0 mm 3 mps 754 mmHg 81%
    02:00 +16°C° 0 mm 3 mps 754 mmHg 85%
    03:00 +15°C° 0 mm 2 mps 754 mmHg 89%
    04:00 +15°C° 0 mm 2 mps 754 mmHg 93%
    05:00 +17°C° 0 mm 2 mps 755 mmHg 83%
    06:00 +19°C° 0 mm 2 mps 755 mmHg 73%
    07:00 +21°C° 0 mm 2 mps 755 mmHg 63%
    08:00 +26°C° 0 mm 3 mps 755 mmHg 52%
    09:00 +29°C° 0 mm 3 mps 755 mmHg 42%
    10:00 +34°C° 0 mm 4 mps 755 mmHg 31%
    11:00 +35°C° 0 mm 4 mps 755 mmHg 30%
    12:00 +35°C° 0 mm 5 mps 755 mmHg 28%
    13:00 +36°C° 0 mm 5 mps 755 mmHg 27%
    14:00 +36°C° 0 mm 5 mps 755 mmHg 28%
    15:00 +36°C° 0 mm 6 mps 755 mmHg 29%
    16:00 +35°C° 0 mm 6 mps 754 mmHg 31%
    17:00 +32°C° 0 mm 5 mps 755 mmHg 38%
    18:00 +28°C° 0 mm 5 mps 755 mmHg 46%
    19:00 +25°C° 0 mm 4 mps 755 mmHg 54%
    20:00 +25°C° 0 mm 4 mps 755 mmHg 53%
    21:00 +23°C° 0 mm 4 mps 755 mmHg 53%
    22:00 +23°C° 0 mm 4 mps 756 mmHg 52%
    23:00 +21°C° 0 mm 3 mps 755 mmHg 58%

    27 Enero, Lunes

    Tiempo Temperatura Precipitaciones Viento Presión Humedad
    00:00 +20°C° 0 mm 3 mps 755 mmHg 63%
    01:00 +18°C° 0 mm 3 mps 755 mmHg 69%
    02:00 +17°C° 0 mm 2 mps 754 mmHg 72%
    03:00 +17°C° 0 mm 2 mps 754 mmHg 75%
    04:00 +16°C° 0 mm 2 mps 754 mmHg 78%
    05:00 +18°C° 0 mm 2 mps 754 mmHg 70%
    06:00 +20°C° 0 mm 2 mps 754 mmHg 62%
    07:00 +21°C° 0 mm 2 mps 754 mmHg 54%
    08:00 +26°C° 0 mm 2 mps 754 mmHg 43%
    09:00 +29°C° 0 mm 3 mps 754 mmHg 31%
    10:00 +34°C° 0 mm 4 mps 754 mmHg 20%
    11:00 +34°C° 0 mm 4 mps 754 mmHg 20%
    12:00 +35°C° 0 mm 5 mps 754 mmHg 20%
    13:00 +35°C° 0 mm 6 mps 754 mmHg 20%
    14:00 +34°C° 0 mm 6 mps 754 mmHg 21%
    15:00 +33°C° 0 mm 6 mps 754 mmHg 22%
    16:00 +33°C° 0 mm 6 mps 754 mmHg 22%
    17:00 +28°C° 0 mm 6 mps 754 mmHg 27%
    18:00 +25°C° 0 mm 5 mps 754 mmHg 33%
    19:00 +21°C° 0 mm 5 mps 754 mmHg 38%
    20:00 +20°C° 0 mm 4 mps 754 mmHg 37%
    21:00 +18°C° 0 mm 4 mps 754 mmHg 36%
    22:00 +17°C° 0 mm 3 mps 754 mmHg 35%
    23:00 +16°C° 0 mm 3 mps 754 mmHg 40%

    28 Enero, Martes

    Tiempo Temperatura Precipitaciones Viento Presión Humedad
    00:00 +15°C° 0 mm 2 mps 754 mmHg 44%
    01:00 +13°C° 0 mm 2 mps 754 mmHg 49%
    02:00 +13°C° 0 mm 1 mps 754 mmHg 57%
    03:00 +12°C° 0 mm 1 mps 754 mmHg 65%
    04:00 +12°C° 0 mm 1 mps 754 mmHg 73%
    05:00 +14°C° 0 mm 1 mps 754 mmHg 67%
    06:00 +16°C° 0 mm 1 mps 754 mmHg 61%
    07:00 +20°C° 0 mm 1 mps 754 mmHg 55%
    08:00 +23°C° 0 mm 1 mps 754 mmHg 46%
    09:00 +27°C° 0 mm 2 mps 754 mmHg 36%
    10:00 +30°C° 0 mm 3 mps 754 mmHg 27%
    11:00 +32°C° 0 mm 4 mps 754 mmHg 28%
    12:00 +32°C° 0 mm 5 mps 753 mmHg 28%
    13:00 +32°C° 0 mm 6 mps 753 mmHg 29%
    14:00 +30°C° 0 mm 6 mps 753 mmHg 33%
    15:00 +29°C° 0 mm 7 mps 753 mmHg 38%
    16:00 +28°C° 0 mm 7 mps 753 mmHg 42%
    17:00 +26°C° 0 mm 7 mps 753 mmHg 46%
    18:00 +22°C° 0 mm 6 mps 753 mmHg 50%
    19:00 +19°C° 0 mm 6 mps 754 mmHg 55%
    20:00 +17°C° 0 mm 5 mps 754 mmHg 59%
    21:00 +17°C° 0 mm 4 mps 755 mmHg 63%
    22:00 +16°C° 0 mm 3 mps 755 mmHg 67%
    23:00 +15°C° 0.1 mm 2 mps 755 mmHg 75%
    Mostrar más